ONEWEB-0208, 48243

Orbit data source: Space-Track

ONEWEB-0208, 48243 is a payload satellite owned by One Web (NAA) (UK) in LEO that was launched on Sun, 25 Apr 2021 UTC via a SOYUZ-2-1B launch vehicle from the Vostochny Cosmodrome (VOSTO). Payload-class satellites include a variety of spacecraft equipped with specific instruments for various scientific and technological missions. These include communications satellites like Starlink; space stations such as the ISS; scientific satellites like the Hubble; Earth observation satellites from companies like Planet Labs, Umbra, and HawkEye 360; GPS; miniature CubeSats for education and research; and military/defense satellites.

Loading next visibility...
Identifier
48243, 2021-031AK
Orbit
LEO
Country
Flag of UKUK
Related business
Manufacturer
One Web
Mission
Operational Commercial Communications
Bus & Motor
ARROW, Unknown motor
Mass
148 kg wet, ~140 kg dry
Launch date (UTC)
2021-04-25 (5 years ago)
Launch vehicle
SOYUZ-2-1B
Launch site
Vostochny Cosmodrome (VOSTO)
Object type
Payload
Rocket body
Debris
Shape & HBR
Trap Box + 2 Pan, 6.7 m
Radar Cross Section
3.464 m², Large (>1 m²)

Expand to show TLE details & history
Last TLE update: 20 hours ago

TLE from 20 hours ago
0 ONEWEB-0208
1 48243U 21031AK  26094.09735031  .00000227  00000-0  57746-3 0  9990
2 48243  87.8940 304.4935 0001864  78.6844 281.4496 13.14501809238574
Epoch: 2026-04-04T02:20Z
TLE epoch observation values (Epoch: 2026-04-04T02:20:11.066Z)
Latitude
0.00005°
Longitude
77.02538°
Altitude
1,208.407 km
Speed
7.25 km/s
True Right ascension
20h 17m 58s
True Declination
0° 00' 00"
Sunlit
Object was in daylight at epoch
Visualization orbit readout
Latitude
Unknown
Longitude
Unknown
Altitude
Unknown
Speed
Unknown
Apparent Right ascension
Unknown
Apparent Declination
Unknown
Sunlit
N/A
Visualization observer readout
Local Sidereal Time
04:08:08
Azimuth
Unknown
Elevation
Unknown
Doppler factor
Unknown
Orbital elements
Apogee altitude
1,204.321 km
Perigee altitude
1,201.495 km
Semi-major axis
7,581.045 km
Eccentricity
0.00019
Inclination
87.894°
RAAN
304.4935°
Arg. of periapsis
78.6844°
True anomaly
281.42866°
Mean anomaly
281.4496°
Eccentric anomaly
281.43913°
Mean motion
3.28813 °/min
Orbital period
109.48 mins
BSTAR
0.00057746
Loading maneuver chart data...
Computing Atmospheric mass density...
Loading historical data...
Loading historical data...
Loading historical data...
Loading historical data...
Loading historical data...
Loading historical data...
Loading historical data...

Documentation

Showing up to 5 results
|